weather.gov     
National Weather Service

Regional Weather Roundup
NWS Homepage
This page is being discontinued on March 12, 2014.
The same data is available at this site. Please update your bookmarks.
Thank you, and we apologize for the inconvenience.
Please send an email to SR-SRH.Webmaster@noaa.gov with any concerns.


Current Version
Previous Version:    01  02  03  04  05  06  07  08  09  10  11  12  13  14  15  16  17  18  19  20  21  22  23  24  25  26  27  
[Printable]
928
ASUS41 KBOX 301110
RWRBOX

REGIONAL WEATHER ROUNDUP
NATIONAL WEATHER SERVICE TAUNTON MA
700 AM EDT WED JUL 30 2014

NOTE:  "FAIR" INDICATES FEW OR NO CLOUDS BELOW 12,000 FEET WITH NO
SIGNIFICANT WEATHER AND/OR OBSTRUCTIONS TO VISIBILITY.  THE FOLLOWING
OBSERVATION LOCATIONS DO NOT REPORT PRESENT WEATHER...PROVINCETOWN...
SMITHFIELD...BLOCK ISLAND...KEENE...AND OXFORD.

MAZALL-301200-
EASTERN MASSACHUSETTS

CITY           SKY/WX    TMP DP  RH WIND       PRES   REMARKS
BOSTON         PTSUNNY   66  57  72 CALM      30.00R
BEVERLY        SUNNY     59  57  93 CALM      29.99R
LAWRENCE       CLOUDY    62  58  86 CALM      30.01R
BEDFORD        CLOUDY    58  58 100 CALM      29.99R
BLUE HILL        N/A     60  56  86 NW5       30.00R
NORWOOD        PTSUNNY   59  57  93 CALM      30.00R
MARSHFIELD     MOSUNNY   61  57  88 CALM      30.01R
PLYMOUTH       SUNNY     58  54  86 CALM      30.00R
TAUNTON        CLOUDY    58  56  93 CALM      29.99R
NEW BEDFORD    SUNNY     57  56  96 CALM      29.99R
$$

MAZALL-301200-
CAPE COD AND THE ISLANDS

CITY           SKY/WX    TMP DP  RH WIND       PRES   REMARKS
FALMOUTH       SUNNY     57  57 100 CALM      30.00R
HYANNIS        SUNNY     60  56  86 CALM      29.99R
CHATHAM        MOSUNNY   61  59  93 CALM      30.00R
PROVINCETOWN   SUNNY     57  55  94 CALM      30.00R
NANTUCKET      MOSUNNY   62  60  93 CALM      30.00R
MARTHAS VNYRD  SUNNY     54  53  97 CALM      30.00R
$$

MAZALL-301200-
CENTRAL AND WESTERN MASSACHUSETTS

CITY           SKY/WX    TMP DP  RH WIND       PRES   REMARKS
WORCESTER      CLOUDY    60  54  80 W3        30.02R
FITCHBURG      CLOUDY    64  57  78 CALM      30.01R
ORANGE         CLOUDY    58  56  93 CALM      30.01R
SPRINGFIELD    CLOUDY    56  55  94 CALM      30.01R
WESTFIELD      CLOUDY    58  55  90 CALM      30.01R
NORTH ADAMS    CLOUDY    56  55  97 CALM      30.02R
PITTSFIELD     CLOUDY    57  55  93 CALM      30.02R
$$

RIZALL-301200-
RHODE ISLAND

CITY           SKY/WX    TMP DP  RH WIND       PRES   REMARKS
PROVIDENCE     MOSUNNY   62  56  80 W5        30.00R
NEWPORT        MOSUNNY   62  59  90 CALM      30.00R
BLOCK ISLAND   MOSUNNY   64  59  82 CALM      30.01R
SMITHFIELD     PTSUNNY   57  52  82 CALM      30.01R
WESTERLY       CLOUDY    60  57  89 CALM      30.01R
$$

CTZALL-301200-
CONNECTICUT

CITY           SKY/WX    TMP DP  RH WIND       PRES   REMARKS
BRADLEY INTL   PTSUNNY   62  56  80 CALM      30.00R
HARTFORD       CLOUDY    61  58  90 CALM      30.01R
BRIDGEPORT     PTSUNNY   63  58  83 N5        30.01R
DANBURY        SUNNY     56  53  90 SW5       30.03R
GROTON         CLOUDY    60  58  92 N3        30.00R
NEW HAVEN      PTSUNNY   62  58  86 CALM      30.01R
CHESTER        FAIR      61  55  82 CALM      30.02R
MERIDEN        SUNNY     57  55  93 CALM      30.01R
WILLIMANTIC    FOG       57  55  93 MISG      30.02R VSB 1/4
OXFORD         MOSUNNY   55  50  82 CALM      30.03R
$$

MEZ002-015-021-024-NHZ003-005-008-011-012-014-VTZ005-008-301200-
NORTHERN NEW ENGLAND

CITY           SKY/WX    TMP DP  RH WIND       PRES   REMARKS
PORTLAND ME    CLOUDY    61  56  83 NE6       30.00R
BANGOR ME      PTSUNNY   61  57  87 N3        30.02S
CONCORD NH     CLOUDY    58  55  90 CALM      30.01R
MANCHESTER NH  CLOUDY    63  54  72 N6        29.99R
NASHUA NH      CLOUDY    62  58  87 CALM      30.01R
PORTSMOUTH NH  PTSUNNY   61  57  85 N3        29.99R
JAFFREY NH     CLOUDY    56  54  93 CALM      30.02R
KEENE NH       CLOUDY    55  48  76 CALM      30.02R
BURLINGTON VT  PTSUNNY   54  51  90 E3        30.02R
MT. WASHINGTON FOG       41  39  93 SE3         N/A  VSB 1/2
$$

NYZ052-076-301200-
EASTERN NEW YORK

CITY           SKY/WX    TMP DP  RH WIND       PRES   REMARKS
ALBANY         PTSUNNY   61  55  81 CALM      30.02R
NEW YORK CITY  PTSUNNY   65  52  62 NE3       30.01R
$$

ANZALL-301200-
MARINE OBSERVATIONS

STATION/POSITION TIME  TEMP    WIND        PRES    VSBY  WAVE
                       AIR SEA DIR/SP/G                  HT/PER
                 (UTC) (F)     (DEG/KT/KT) (MB)    (MI)  (FT/S)
BOSTON BUOY      NOT AVBL
BUZZARDS BAY     NOT AVBL
NANTUCKET SOUND  NOT AVBL
MASS BAY-STELLWA NOT AVBL
ISLE OF SHOALS   NOT AVBL
S OF BLOCK IS    NOT AVBL
$$

......................KEY.........................
  SKY/WX - SKY CONDITION/PRESENT WEATHER
  TMP    - TEMPERATURE IN FAHRENHEIT
  DWPT   - DEWPOINT IN FAHRENHEIT
  RH     - RELATIVE HUMIDITY IN PERCENT
  WIND   - DIRECTION AND SPEED IN MPH
  PRES   - MEAN SEA LEVEL PRESSURE IN INCHES OF HG
  WCI    - WIND CHILL INDEX
  VSB    - VISIBILITY IN MILES
  HX     - HEAT INDEX
  TC     - TEMPERATURE IN CELSIUS
  VRB    - VARIABLE WIND DIRECTION
  N/A    - NOT AVAILABLE




U.S. Dept. of Commerce
NOAA National Weather Service
1325 East West Highway
Silver Spring, MD 20910
E-mail: w-nws.webmaster@noaa.gov
Page last modified: May 16, 2007
NATIONAL WEATHER SERVICE: for Safety, for Work, for Fun - FOR LIFE